Year,Month,Day,Hour,Minute,Value (Times are PST for barometer in hPa)
2019,02,03,00,00,985.61
2019,02,03,00,01,985.61
2019,02,03,00,02,985.64
2019,02,03,00,03,985.64
2019,02,03,00,04,985.61
2019,02,03,00,05,985.61
2019,02,03,00,06,985.57
2019,02,03,00,07,985.57
2019,02,03,00,08,985.54
2019,02,03,00,09,985.57
2019,02,03,00,10,985.54
2019,02,03,00,11,985.54
2019,02,03,00,12,985.47
2019,02,03,00,13,985.51
2019,02,03,00,14,985.47
2019,02,03,00,15,985.47
2019,02,03,00,16,985.47
2019,02,03,00,17,985.41
2019,02,03,00,18,985.44
2019,02,03,00,19,985.44
2019,02,03,00,20,985.37
2019,02,03,00,21,985.37
2019,02,03,00,22,985.34
2019,02,03,00,23,985.37
2019,02,03,00,24,985.34
2019,02,03,00,25,985.37
2019,02,03,00,26,985.34
2019,02,03,00,27,985.37
2019,02,03,00,28,985.41
2019,02,03,00,29,985.44
2019,02,03,00,30,985.37
2019,02,03,00,31,985.34
2019,02,03,00,32,985.34
2019,02,03,00,33,985.27
2019,02,03,00,34,985.27
2019,02,03,00,35,985.27
2019,02,03,00,36,985.24
2019,02,03,00,37,985.27
2019,02,03,00,38,985.24
2019,02,03,00,39,985.24
2019,02,03,00,40,985.20
2019,02,03,00,41,985.24
2019,02,03,00,42,985.24
2019,02,03,00,43,985.24
2019,02,03,00,44,985.24
2019,02,03,00,45,985.20
2019,02,03,00,46,985.20
2019,02,03,00,47,985.17
2019,02,03,00,48,985.17
2019,02,03,00,49,985.13
2019,02,03,00,50,985.17
2019,02,03,00,51,985.13
2019,02,03,00,52,985.17
2019,02,03,00,53,985.10
2019,02,03,00,54,985.10
2019,02,03,00,55,985.10
2019,02,03,00,56,985.10
2019,02,03,00,57,985.10
2019,02,03,00,58,985.03
2019,02,03,00,59,985.07
2019,02,03,01,00,985.03
2019,02,03,01,01,985.03
2019,02,03,01,02,985.03
2019,02,03,01,03,985.03
2019,02,03,01,04,985.03
2019,02,03,01,05,985.00
2019,02,03,01,06,984.97
2019,02,03,01,07,984.90
2019,02,03,01,08,984.93
2019,02,03,01,09,984.86
2019,02,03,01,10,984.90
2019,02,03,01,11,984.90
2019,02,03,01,12,984.90
2019,02,03,01,13,984.90
2019,02,03,01,14,984.90
2019,02,03,01,15,984.90
2019,02,03,01,16,984.86
2019,02,03,01,17,984.90
2019,02,03,01,18,984.86
2019,02,03,01,19,984.90
2019,02,03,01,20,984.86
2019,02,03,01,21,984.90
2019,02,03,01,22,984.86
2019,02,03,01,23,984.83
2019,02,03,01,24,984.80
2019,02,03,01,25,984.80
2019,02,03,01,26,984.80
2019,02,03,01,27,984.76
2019,02,03,01,28,984.76
2019,02,03,01,29,984.76
2019,02,03,01,30,984.76
2019,02,03,01,31,984.80
2019,02,03,01,32,984.76
2019,02,03,01,33,984.76
2019,02,03,01,34,984.76
2019,02,03,01,35,984.80
2019,02,03,01,36,984.73
2019,02,03,01,37,984.76
2019,02,03,01,38,984.73
2019,02,03,01,39,984.73
2019,02,03,01,40,984.73
2019,02,03,01,41,984.66
2019,02,03,01,42,984.63
2019,02,03,01,43,984.63
2019,02,03,01,44,984.66
2019,02,03,01,45,984.66
2019,02,03,01,46,984.66
2019,02,03,01,47,984.63
2019,02,03,01,48,984.63
2019,02,03,01,49,984.66
2019,02,03,01,50,984.63
2019,02,03,01,51,984.59
2019,02,03,01,52,984.56
2019,02,03,01,53,984.53
2019,02,03,01,54,984.53
2019,02,03,01,55,984.49
2019,02,03,01,56,984.46
2019,02,03,01,57,984.46
2019,02,03,01,58,984.49
2019,02,03,01,59,984.49
2019,02,03,02,00,984.49
2019,02,03,02,01,984.49
2019,02,03,02,02,984.49
2019,02,03,02,03,984.49
2019,02,03,02,04,984.49
2019,02,03,02,05,984.49
2019,02,03,02,06,984.49
2019,02,03,02,07,984.46
2019,02,03,02,08,984.46
2019,02,03,02,09,984.46
2019,02,03,02,10,984.46
2019,02,03,02,11,984.46
2019,02,03,02,12,984.46
2019,02,03,02,13,984.42
2019,02,03,02,14,984.39
2019,02,03,02,15,984.39
2019,02,03,02,16,984.36
2019,02,03,02,17,984.39
2019,02,03,02,18,984.36
2019,02,03,02,19,984.39
2019,02,03,02,20,984.42
2019,02,03,02,21,984.39
2019,02,03,02,22,984.46
2019,02,03,02,23,984.42
2019,02,03,02,24,984.36
2019,02,03,02,25,984.36
2019,02,03,02,26,984.36
2019,02,03,02,27,984.32
2019,02,03,02,28,984.29
2019,02,03,02,29,984.36
2019,02,03,02,30,984.32
2019,02,03,02,31,984.32
2019,02,03,02,32,984.32
2019,02,03,02,33,984.32
2019,02,03,02,34,984.36
2019,02,03,02,35,984.36
2019,02,03,02,36,984.36
2019,02,03,02,37,984.36
2019,02,03,02,38,984.32
2019,02,03,02,39,984.36
2019,02,03,02,40,984.36
2019,02,03,02,41,984.39
2019,02,03,02,42,984.39
2019,02,03,02,43,984.39
2019,02,03,02,44,984.36
2019,02,03,02,45,984.42
2019,02,03,02,46,984.39
2019,02,03,02,47,984.46
2019,02,03,02,48,984.46
2019,02,03,02,49,984.46
2019,02,03,02,50,984.42
2019,02,03,02,51,984.42
2019,02,03,02,52,984.42
2019,02,03,02,53,984.39
2019,02,03,02,54,984.46
2019,02,03,02,55,984.46
2019,02,03,02,56,984.46
2019,02,03,02,57,984.46
2019,02,03,02,58,984.42
2019,02,03,02,59,984.42
2019,02,03,03,00,984.42
2019,02,03,03,01,984.39
2019,02,03,03,02,984.36
2019,02,03,03,03,984.39
2019,02,03,03,04,984.36
2019,02,03,03,05,984.39
2019,02,03,03,06,984.39
2019,02,03,03,07,984.36
2019,02,03,03,08,984.32
2019,02,03,03,09,984.32
2019,02,03,03,10,984.36
2019,02,03,03,11,984.32
2019,02,03,03,12,984.25
2019,02,03,03,13,984.29
2019,02,03,03,14,984.25
2019,02,03,03,15,984.29
2019,02,03,03,16,984.29
2019,02,03,03,17,984.25
2019,02,03,03,18,984.22
2019,02,03,03,19,984.29
2019,02,03,03,20,984.25
2019,02,03,03,21,984.22
2019,02,03,03,22,984.22
2019,02,03,03,23,984.19
2019,02,03,03,24,984.19
2019,02,03,03,25,984.22
2019,02,03,03,26,984.19
2019,02,03,03,27,984.15
2019,02,03,03,28,984.12
2019,02,03,03,29,984.12
2019,02,03,03,30,984.12
2019,02,03,03,31,984.15
2019,02,03,03,32,984.08
2019,02,03,03,33,984.08
2019,02,03,03,34,984.08
2019,02,03,03,35,984.02
2019,02,03,03,36,984.05
2019,02,03,03,37,984.05
2019,02,03,03,38,983.98
2019,02,03,03,39,983.98
2019,02,03,03,40,983.98
2019,02,03,03,41,983.92
2019,02,03,03,42,983.92
2019,02,03,03,43,983.92
2019,02,03,03,44,983.92
2019,02,03,03,45,983.88
2019,02,03,03,46,983.85
2019,02,03,03,47,983.85
2019,02,03,03,48,983.85
2019,02,03,03,49,983.81
2019,02,03,03,50,983.81
2019,02,03,03,51,983.75
2019,02,03,03,52,983.78
2019,02,03,03,53,983.75
2019,02,03,03,54,983.75
2019,02,03,03,55,983.71
2019,02,03,03,56,983.71
2019,02,03,03,57,983.68
2019,02,03,03,58,983.64
2019,02,03,03,59,983.64
2019,02,03,04,00,983.64
2019,02,03,04,01,983.64
2019,02,03,04,02,983.58
2019,02,03,04,03,983.58
2019,02,03,04,04,983.58
2019,02,03,04,05,983.54
2019,02,03,04,06,983.54
2019,02,03,04,07,983.54
2019,02,03,04,08,983.51
2019,02,03,04,09,983.51
2019,02,03,04,10,983.48
2019,02,03,04,11,983.51
2019,02,03,04,12,983.44
2019,02,03,04,13,983.44
2019,02,03,04,14,983.44
2019,02,03,04,15,983.41
2019,02,03,04,16,983.44
2019,02,03,04,17,983.34
2019,02,03,04,18,983.34
2019,02,03,04,19,983.37
2019,02,03,04,20,983.34
2019,02,03,04,21,983.34
2019,02,03,04,22,983.31
2019,02,03,04,23,983.27
2019,02,03,04,24,983.31
2019,02,03,04,25,983.24
2019,02,03,04,26,983.14
2019,02,03,04,27,983.14
2019,02,03,04,28,983.10
2019,02,03,04,29,983.10
2019,02,03,04,30,983.10
2019,02,03,04,31,983.10
2019,02,03,04,32,983.10
2019,02,03,04,33,983.14
2019,02,03,04,34,983.14
2019,02,03,04,35,983.10
2019,02,03,04,36,983.14
2019,02,03,04,37,983.07
2019,02,03,04,38,983.07
2019,02,03,04,39,983.04
2019,02,03,04,40,983.07
2019,02,03,04,41,983.04
2019,02,03,04,42,983.04
2019,02,03,04,43,982.97
2019,02,03,04,44,982.97
2019,02,03,04,45,982.93
2019,02,03,04,46,982.93
2019,02,03,04,47,982.90
2019,02,03,04,48,982.87
2019,02,03,04,49,982.83
2019,02,03,04,50,982.87
2019,02,03,04,51,982.87
2019,02,03,04,52,982.90
2019,02,03,04,53,982.87
2019,02,03,04,54,982.87
2019,02,03,04,55,982.87
2019,02,03,04,56,982.87
2019,02,03,04,57,982.87
2019,02,03,04,58,982.90
2019,02,03,04,59,982.83
2019,02,03,05,00,982.80
2019,02,03,05,01,982.83
2019,02,03,05,02,982.83
2019,02,03,05,03,982.87
2019,02,03,05,04,982.83
2019,02,03,05,05,982.80
2019,02,03,05,06,982.80
2019,02,03,05,07,982.80
2019,02,03,05,08,982.76
2019,02,03,05,09,982.73
2019,02,03,05,10,982.73
2019,02,03,05,11,982.73
2019,02,03,05,12,982.73
2019,02,03,05,13,982.73
2019,02,03,05,14,982.73
2019,02,03,05,15,982.70
2019,02,03,05,16,982.76
2019,02,03,05,17,982.73
2019,02,03,05,18,982.76
2019,02,03,05,19,982.80
2019,02,03,05,20,982.80
2019,02,03,05,21,982.80
2019,02,03,05,22,982.83
2019,02,03,05,23,982.80
2019,02,03,05,24,982.83
2019,02,03,05,25,982.76
2019,02,03,05,26,982.80
2019,02,03,05,27,982.80
2019,02,03,05,28,982.76
2019,02,03,05,29,982.80
2019,02,03,05,30,982.80
2019,02,03,05,31,982.80
2019,02,03,05,32,982.80
2019,02,03,05,33,982.80
2019,02,03,05,34,982.83
2019,02,03,05,35,982.80
2019,02,03,05,36,982.83
2019,02,03,05,37,982.80
2019,02,03,05,38,982.76
2019,02,03,05,39,982.80
2019,02,03,05,40,982.80
2019,02,03,05,41,982.87
2019,02,03,05,42,982.87
2019,02,03,05,43,982.87
2019,02,03,05,44,982.83
2019,02,03,05,45,982.83
2019,02,03,05,46,982.80
2019,02,03,05,47,982.83
2019,02,03,05,48,982.83
2019,02,03,05,49,982.80
2019,02,03,05,50,982.80
2019,02,03,05,51,982.76
2019,02,03,05,52,982.73
2019,02,03,05,53,982.73
2019,02,03,05,54,982.73
2019,02,03,05,55,982.73
2019,02,03,05,56,982.80
2019,02,03,05,57,982.83
2019,02,03,05,58,982.80
2019,02,03,05,59,982.76
2019,02,03,06,00,982.76
2019,02,03,06,01,982.70
2019,02,03,06,02,982.63
2019,02,03,06,03,982.63
2019,02,03,06,04,982.66
2019,02,03,06,05,982.63
2019,02,03,06,06,982.63
2019,02,03,06,07,982.66
2019,02,03,06,08,982.63
2019,02,03,06,09,982.63
2019,02,03,06,10,982.63
2019,02,03,06,11,982.63
2019,02,03,06,12,982.63
2019,02,03,06,13,982.59
2019,02,03,06,14,982.56
2019,02,03,06,15,982.59
2019,02,03,06,16,982.56
2019,02,03,06,17,982.59
2019,02,03,06,18,982.59
2019,02,03,06,19,982.56
2019,02,03,06,20,982.53
2019,02,03,06,21,982.56
2019,02,03,06,22,982.56
2019,02,03,06,23,982.56
2019,02,03,06,24,982.56
2019,02,03,06,25,982.63
2019,02,03,06,26,982.59
2019,02,03,06,27,982.56
2019,02,03,06,28,982.59
2019,02,03,06,29,982.56
2019,02,03,06,30,982.53
2019,02,03,06,31,982.53
2019,02,03,06,32,982.53
2019,02,03,06,33,982.53
2019,02,03,06,34,982.53
2019,02,03,06,35,982.49
2019,02,03,06,36,982.53
2019,02,03,06,37,982.49
2019,02,03,06,38,982.53
2019,02,03,06,39,982.53
2019,02,03,06,40,982.46
2019,02,03,06,41,982.46
2019,02,03,06,42,982.46
2019,02,03,06,43,982.43
2019,02,03,06,44,982.43
2019,02,03,06,45,982.39
2019,02,03,06,46,982.36
2019,02,03,06,47,982.32
2019,02,03,06,48,982.36
2019,02,03,06,49,982.39
2019,02,03,06,50,982.43
2019,02,03,06,51,982.43
2019,02,03,06,52,982.36
2019,02,03,06,53,982.29
2019,02,03,06,54,982.32
2019,02,03,06,55,982.29
2019,02,03,06,56,982.29
2019,02,03,06,57,982.26
2019,02,03,06,58,982.26
2019,02,03,06,59,982.22
2019,02,03,07,00,982.26
2019,02,03,07,01,982.22
2019,02,03,07,02,982.26
2019,02,03,07,03,982.19
2019,02,03,07,04,982.19
2019,02,03,07,05,982.22
2019,02,03,07,06,982.22
2019,02,03,07,07,982.19
2019,02,03,07,08,982.22
2019,02,03,07,09,982.22
2019,02,03,07,10,982.22
2019,02,03,07,11,982.22
2019,02,03,07,12,982.22
2019,02,03,07,13,982.09
2019,02,03,07,14,982.09
2019,02,03,07,15,982.05
2019,02,03,07,16,982.12
2019,02,03,07,17,982.05
2019,02,03,07,18,982.02
2019,02,03,07,19,982.02
2019,02,03,07,20,981.99
2019,02,03,07,21,982.05
2019,02,03,07,22,982.09
2019,02,03,07,23,982.02
2019,02,03,07,24,982.02
2019,02,03,07,25,982.02
2019,02,03,07,26,981.99
2019,02,03,07,27,982.02
2019,02,03,07,28,982.02
2019,02,03,07,29,982.05
2019,02,03,07,30,982.05
2019,02,03,07,31,982.05
2019,02,03,07,32,982.05
2019,02,03,07,33,982.09
2019,02,03,07,34,982.02
2019,02,03,07,35,981.99
2019,02,03,07,36,981.99
2019,02,03,07,37,981.92
2019,02,03,07,38,982.02
2019,02,03,07,39,981.92
2019,02,03,07,40,981.92
2019,02,03,07,41,981.99
2019,02,03,07,42,981.99
2019,02,03,07,43,981.95
2019,02,03,07,44,981.92
2019,02,03,07,45,981.95
2019,02,03,07,46,981.95
2019,02,03,07,47,981.95
2019,02,03,07,48,981.95
2019,02,03,07,49,981.92
2019,02,03,07,50,981.95
2019,02,03,07,51,981.95
2019,02,03,07,52,981.92
2019,02,03,07,53,981.95
2019,02,03,07,54,981.88
2019,02,03,07,55,981.88
2019,02,03,07,56,981.82
2019,02,03,07,57,981.88
2019,02,03,07,58,981.88
2019,02,03,07,59,981.85
2019,02,03,08,00,981.88
2019,02,03,08,01,981.88
2019,02,03,08,02,981.95
2019,02,03,08,03,981.99
2019,02,03,08,04,982.05
2019,02,03,08,05,982.02
2019,02,03,08,06,982.02
2019,02,03,08,07,982.05
2019,02,03,08,08,982.05
2019,02,03,08,09,982.02
2019,02,03,08,10,982.02
2019,02,03,08,11,982.02
2019,02,03,08,12,981.99
2019,02,03,08,13,982.02
2019,02,03,08,14,981.95
2019,02,03,08,15,981.95
2019,02,03,08,16,981.99
2019,02,03,08,17,981.99
2019,02,03,08,18,981.96
2019,02,03,08,19,982.05
2019,02,03,08,20,982.12
2019,02,03,08,21,982.09
2019,02,03,08,22,982.05
2019,02,03,08,23,982.12
2019,02,03,08,24,982.15
2019,02,03,08,25,982.19
2019,02,03,08,26,982.19
2019,02,03,08,27,982.26
2019,02,03,08,28,982.26
2019,02,03,08,29,982.29
2019,02,03,08,30,982.29
2019,02,03,08,31,982.32
2019,02,03,08,32,982.29
2019,02,03,08,33,982.29
2019,02,03,08,34,982.29
2019,02,03,08,35,982.36
2019,02,03,08,36,982.29
2019,02,03,08,37,982.36
2019,02,03,08,38,982.39
2019,02,03,08,39,982.32
2019,02,03,08,40,982.46
2019,02,03,08,41,982.39
2019,02,03,08,42,982.43
2019,02,03,08,43,982.46
2019,02,03,08,44,982.53
2019,02,03,08,45,982.49
2019,02,03,08,46,982.53
2019,02,03,08,47,982.43
2019,02,03,08,48,982.56
2019,02,03,08,49,982.49
2019,02,03,08,50,982.53
2019,02,03,08,51,982.56
2019,02,03,08,52,982.53
2019,02,03,08,53,982.44
2019,02,03,08,54,982.56
2019,02,03,08,55,982.49
2019,02,03,08,56,982.49
2019,02,03,08,57,982.53
2019,02,03,08,58,982.56
2019,02,03,08,59,982.49
2019,02,03,09,00,982.49
2019,02,03,09,01,982.49
2019,02,03,09,02,982.53
2019,02,03,09,03,982.53
2019,02,03,09,04,982.53
2019,02,03,09,05,982.49
2019,02,03,09,06,982.49
2019,02,03,09,07,982.49
2019,02,03,09,08,982.49
2019,02,03,09,09,982.53
2019,02,03,09,10,982.49
2019,02,03,09,11,982.49
2019,02,03,09,12,982.53
2019,02,03,09,13,982.46
2019,02,03,09,14,982.46
2019,02,03,09,15,982.46
2019,02,03,09,16,982.46
2019,02,03,09,17,982.49
2019,02,03,09,18,982.53
2019,02,03,09,19,982.53
2019,02,03,09,20,982.49
2019,02,03,09,21,982.53
2019,02,03,09,22,982.53
2019,02,03,09,23,982.56
2019,02,03,09,24,982.59
2019,02,03,09,25,982.56
2019,02,03,09,26,982.59
2019,02,03,09,27,982.56
2019,02,03,09,28,982.63
2019,02,03,09,29,982.63
2019,02,03,09,30,982.59
2019,02,03,09,31,982.56
2019,02,03,09,32,982.59
2019,02,03,09,33,982.63
2019,02,03,09,34,982.59
2019,02,03,09,35,982.63
2019,02,03,09,36,982.70
2019,02,03,09,37,982.70
2019,02,03,09,38,982.70
2019,02,03,09,39,982.73
2019,02,03,09,40,982.83
2019,02,03,09,41,982.80
2019,02,03,09,42,982.83
2019,02,03,09,43,982.83
2019,02,03,09,44,982.83
2019,02,03,09,45,982.77
2019,02,03,09,46,982.87
2019,02,03,09,47,982.93
2019,02,03,09,48,982.83
2019,02,03,09,49,982.76
2019,02,03,09,50,982.80
2019,02,03,09,51,982.80
2019,02,03,09,52,982.73
2019,02,03,09,53,982.76
2019,02,03,09,54,982.80
2019,02,03,09,55,982.73
2019,02,03,09,56,982.73
2019,02,03,09,57,982.80
2019,02,03,09,58,982.83
2019,02,03,09,59,982.80
2019,02,03,10,00,982.80
2019,02,03,10,01,982.90
2019,02,03,10,02,982.83
2019,02,03,10,03,982.93
2019,02,03,10,04,982.90
2019,02,03,10,05,982.87
2019,02,03,10,06,982.93
2019,02,03,10,07,983.00
2019,02,03,10,08,982.93
2019,02,03,10,09,982.97
2019,02,03,10,10,983.00
2019,02,03,10,11,983.04
2019,02,03,10,12,983.00
2019,02,03,10,13,983.04
2019,02,03,10,14,983.04
2019,02,03,10,15,983.07
2019,02,03,10,16,983.10
2019,02,03,10,17,983.14
2019,02,03,10,18,983.10
2019,02,03,10,19,983.14
2019,02,03,10,20,983.14
2019,02,03,10,21,983.17
2019,02,03,10,22,983.20
2019,02,03,10,23,983.20
2019,02,03,10,24,983.20
2019,02,03,10,25,983.24
2019,02,03,10,26,983.24
2019,02,03,10,27,983.31
2019,02,03,10,28,983.34
2019,02,03,10,29,983.37
2019,02,03,10,30,983.41
2019,02,03,10,31,983.41
2019,02,03,10,32,983.41
2019,02,03,10,33,983.44
2019,02,03,10,34,983.41
2019,02,03,10,35,983.41
2019,02,03,10,36,983.51
2019,02,03,10,37,983.57
2019,02,03,10,38,983.51
2019,02,03,10,39,983.54
2019,02,03,10,40,983.58
2019,02,03,10,41,983.61
2019,02,03,10,42,983.58
2019,02,03,10,43,983.59
2019,02,03,10,44,983.71
2019,02,03,10,45,983.71
2019,02,03,10,46,983.71
2019,02,03,10,47,983.64
2019,02,03,10,48,983.71
2019,02,03,10,49,983.71
2019,02,03,10,50,983.71
2019,02,03,10,51,983.75
2019,02,03,10,52,983.68
2019,02,03,10,53,983.78
2019,02,03,10,54,983.81
2019,02,03,10,55,983.81
2019,02,03,10,56,983.88
2019,02,03,10,57,983.95
2019,02,03,10,58,984.02
2019,02,03,10,59,983.98
2019,02,03,11,00,984.05
2019,02,03,11,01,984.02
2019,02,03,11,02,984.19
2019,02,03,11,03,984.25
2019,02,03,11,04,984.19
2019,02,03,11,05,984.22
2019,02,03,11,06,984.15
2019,02,03,11,07,984.19
2019,02,03,11,08,984.15
2019,02,03,11,09,984.15
2019,02,03,11,10,984.15
2019,02,03,11,11,984.19
2019,02,03,11,12,984.19
2019,02,03,11,13,984.19
2019,02,03,11,14,984.19
2019,02,03,11,15,984.12
2019,02,03,11,16,984.12
2019,02,03,11,17,984.12
2019,02,03,11,18,984.08
2019,02,03,11,19,984.08
2019,02,03,11,20,984.15
2019,02,03,11,21,984.19
2019,02,03,11,22,984.19
2019,02,03,11,23,984.22
2019,02,03,11,24,984.29
2019,02,03,11,25,984.25
2019,02,03,11,26,984.19
2019,02,03,11,27,984.22
2019,02,03,11,28,984.29
2019,02,03,11,29,984.25
2019,02,03,11,30,984.25
2019,02,03,11,31,984.25
2019,02,03,11,32,984.19
2019,02,03,11,33,984.25
2019,02,03,11,34,984.22
2019,02,03,11,35,984.22
2019,02,03,11,36,984.19
2019,02,03,11,37,984.22
2019,02,03,11,38,984.22
2019,02,03,11,39,984.22
2019,02,03,11,40,984.19
2019,02,03,11,41,984.25
2019,02,03,11,42,984.22
2019,02,03,11,43,984.22
2019,02,03,11,44,984.19
2019,02,03,11,45,984.25
2019,02,03,11,46,984.19
2019,02,03,11,47,984.22
2019,02,03,11,48,984.19
2019,02,03,11,49,984.19
2019,02,03,11,50,984.19
2019,02,03,11,51,984.22
2019,02,03,11,52,984.25
2019,02,03,11,53,984.19
2019,02,03,11,54,984.29
2019,02,03,11,55,984.29
2019,02,03,11,56,984.25
2019,02,03,11,57,984.25
2019,02,03,11,58,984.29
2019,02,03,11,59,984.29
2019,02,03,12,00,984.39
2019,02,03,12,01,984.36
2019,02,03,12,02,984.32
2019,02,03,12,03,984.36
2019,02,03,12,04,984.39
2019,02,03,12,05,984.36
2019,02,03,12,06,984.36
2019,02,03,12,07,984.39
2019,02,03,12,08,984.42
2019,02,03,12,09,984.39
2019,02,03,12,10,984.39
2019,02,03,12,11,984.32
2019,02,03,12,12,984.39
2019,02,03,12,13,984.39
2019,02,03,12,14,984.39
2019,02,03,12,15,984.39
2019,02,03,12,16,984.42
2019,02,03,12,17,984.39
2019,02,03,12,18,984.46
2019,02,03,12,19,984.46
2019,02,03,12,20,984.42
2019,02,03,12,21,984.39
2019,02,03,12,22,984.39
2019,02,03,12,23,984.42
2019,02,03,12,24,984.46
2019,02,03,12,25,984.32
2019,02,03,12,26,984.39
2019,02,03,12,27,984.39
2019,02,03,12,28,984.36
2019,02,03,12,29,984.36
2019,02,03,12,30,984.32
2019,02,03,12,31,984.29
2019,02,03,12,32,984.36
2019,02,03,12,33,984.22
2019,02,03,12,34,984.25
2019,02,03,12,35,984.25
2019,02,03,12,36,984.29
2019,02,03,12,37,984.29
2019,02,03,12,38,984.29
2019,02,03,12,39,984.32
2019,02,03,12,40,984.36
2019,02,03,12,41,984.32
2019,02,03,12,42,984.36
2019,02,03,12,43,984.29
2019,02,03,12,44,984.32
2019,02,03,12,45,984.32
2019,02,03,12,46,984.32
2019,02,03,12,47,984.32
2019,02,03,12,48,984.32
2019,02,03,12,49,984.29
2019,02,03,12,50,984.32
2019,02,03,12,51,984.32
2019,02,03,12,52,984.36
2019,02,03,12,53,984.32
2019,02,03,12,54,984.36
2019,02,03,12,55,984.39
2019,02,03,12,56,984.36
2019,02,03,12,57,984.32
2019,02,03,12,58,984.36
2019,02,03,12,59,984.36
2019,02,03,13,00,984.32
2019,02,03,13,01,984.36
2019,02,03,13,02,984.39
2019,02,03,13,03,984.36
2019,02,03,13,04,984.42
2019,02,03,13,05,984.46
2019,02,03,13,06,984.49
2019,02,03,13,07,984.49
2019,02,03,13,08,984.46
2019,02,03,13,09,984.42
2019,02,03,13,10,984.49
2019,02,03,13,11,984.56
2019,02,03,13,12,984.56
2019,02,03,13,13,984.59
2019,02,03,13,14,984.63
2019,02,03,13,15,984.59
2019,02,03,13,16,984.63
2019,02,03,13,17,984.63
2019,02,03,13,18,984.63
2019,02,03,13,19,984.66
2019,02,03,13,20,984.66
2019,02,03,13,21,984.66
2019,02,03,13,22,984.66
2019,02,03,13,23,984.59
2019,02,03,13,24,984.63
2019,02,03,13,25,984.63
2019,02,03,13,26,984.63
2019,02,03,13,27,984.59
2019,02,03,13,28,984.53
2019,02,03,13,29,984.56
2019,02,03,13,30,984.59
2019,02,03,13,31,984.56
2019,02,03,13,32,984.56
2019,02,03,13,33,984.59
2019,02,03,13,34,984.56
2019,02,03,13,35,984.59
2019,02,03,13,36,984.63
2019,02,03,13,37,984.66
2019,02,03,13,38,984.63
2019,02,03,13,39,984.63
2019,02,03,13,40,984.66
2019,02,03,13,41,984.63
2019,02,03,13,42,984.66
2019,02,03,13,43,984.63
2019,02,03,13,44,984.76
2019,02,03,13,45,984.76
2019,02,03,13,46,984.76
2019,02,03,13,47,984.66
2019,02,03,13,48,984.69
2019,02,03,13,49,984.69
2019,02,03,13,50,984.66
2019,02,03,13,51,984.73
2019,02,03,13,52,984.66
2019,02,03,13,53,984.69
2019,02,03,13,54,984.66
2019,02,03,13,55,984.73
2019,02,03,13,56,984.66
2019,02,03,13,57,984.63
2019,02,03,13,58,984.59
2019,02,03,13,59,984.56
2019,02,03,14,00,984.56
2019,02,03,14,01,984.59
2019,02,03,14,02,984.56
2019,02,03,14,03,984.53
2019,02,03,14,04,984.46
2019,02,03,14,05,984.49
2019,02,03,14,06,984.46
2019,02,03,14,07,984.46
2019,02,03,14,08,984.39
2019,02,03,14,09,984.42
2019,02,03,14,10,984.36
2019,02,03,14,11,984.36
2019,02,03,14,12,984.32
2019,02,03,14,13,984.36
2019,02,03,14,14,984.32
2019,02,03,14,15,984.29
2019,02,03,14,16,984.25
2019,02,03,14,17,984.25
2019,02,03,14,18,984.22
2019,02,03,14,19,984.19
2019,02,03,14,20,984.19
2019,02,03,14,21,984.22
2019,02,03,14,22,984.22
2019,02,03,14,23,984.22
2019,02,03,14,24,984.19
2019,02,03,14,25,984.15
2019,02,03,14,26,984.19
2019,02,03,14,27,984.22
2019,02,03,14,28,984.15
2019,02,03,14,29,984.22
2019,02,03,14,30,984.29
2019,02,03,14,31,984.29
2019,02,03,14,32,984.25
2019,02,03,14,33,984.25
2019,02,03,14,34,984.25
2019,02,03,14,35,984.19
2019,02,03,14,36,984.15
2019,02,03,14,37,984.19
2019,02,03,14,38,984.19
2019,02,03,14,39,984.19
2019,02,03,14,40,984.22
2019,02,03,14,41,984.19
2019,02,03,14,42,984.19
2019,02,03,14,43,984.19
2019,02,03,14,44,984.15
2019,02,03,14,45,984.15
2019,02,03,14,46,984.12
2019,02,03,14,47,984.12
2019,02,03,14,48,984.08
2019,02,03,14,49,984.08
2019,02,03,14,50,984.08
2019,02,03,14,51,984.15
2019,02,03,14,52,984.15
2019,02,03,14,53,984.12
2019,02,03,14,54,984.05
2019,02,03,14,55,984.12
2019,02,03,14,56,984.08
2019,02,03,14,57,984.12
2019,02,03,14,58,984.12
2019,02,03,14,59,984.12
2019,02,03,15,00,984.19
2019,02,03,15,01,984.19
2019,02,03,15,02,984.22
2019,02,03,15,03,984.19
2019,02,03,15,04,984.19
2019,02,03,15,05,984.19
2019,02,03,15,06,984.19
2019,02,03,15,07,984.15
2019,02,03,15,08,984.15
2019,02,03,15,09,984.15
2019,02,03,15,10,984.19
2019,02,03,15,11,984.19
2019,02,03,15,12,984.15
2019,02,03,15,13,984.19
2019,02,03,15,14,984.19
2019,02,03,15,15,984.19
2019,02,03,15,16,984.22
2019,02,03,15,17,984.22
2019,02,03,15,18,984.25
2019,02,03,15,19,984.32
2019,02,03,15,20,984.36
2019,02,03,15,21,984.39
2019,02,03,15,22,984.39
2019,02,03,15,23,984.39
2019,02,03,15,24,984.39
2019,02,03,15,25,984.39
2019,02,03,15,26,984.42
2019,02,03,15,27,984.42
2019,02,03,15,28,984.42
2019,02,03,15,29,984.42
2019,02,03,15,30,984.46
2019,02,03,15,31,984.46
2019,02,03,15,32,984.39
2019,02,03,15,33,984.39
2019,02,03,15,34,984.36
2019,02,03,15,35,984.39
2019,02,03,15,36,984.32
2019,02,03,15,37,984.29
2019,02,03,15,38,984.32
2019,02,03,15,39,984.32
2019,02,03,15,40,984.29
2019,02,03,15,41,984.25
2019,02,03,15,42,984.22
2019,02,03,15,43,984.19
2019,02,03,15,44,984.19
2019,02,03,15,45,984.15
2019,02,03,15,46,984.19
2019,02,03,15,47,984.19
2019,02,03,15,48,984.15
2019,02,03,15,49,984.08
2019,02,03,15,50,984.12
2019,02,03,15,51,984.08
2019,02,03,15,52,984.08
2019,02,03,15,53,984.08
2019,02,03,15,54,984.08
2019,02,03,15,55,984.08
2019,02,03,15,56,984.15
2019,02,03,15,57,984.15
2019,02,03,15,58,984.19
2019,02,03,15,59,984.15
2019,02,03,16,00,984.15
2019,02,03,16,01,984.12
2019,02,03,16,02,984.12
2019,02,03,16,03,984.08
2019,02,03,16,04,984.08
2019,02,03,16,05,984.15
2019,02,03,16,06,984.12
2019,02,03,16,07,984.12
2019,02,03,16,08,984.08
2019,02,03,16,09,984.05
2019,02,03,16,10,984.08
2019,02,03,16,11,984.08
2019,02,03,16,12,984.12
2019,02,03,16,13,984.05
2019,02,03,16,14,984.02
2019,02,03,16,15,984.02
2019,02,03,16,16,984.05
2019,02,03,16,17,984.08
2019,02,03,16,18,984.15
2019,02,03,16,19,984.08
2019,02,03,16,20,984.15
2019,02,03,16,21,984.12
2019,02,03,16,22,984.15
2019,02,03,16,23,984.15
2019,02,03,16,24,984.15
2019,02,03,16,25,984.15
2019,02,03,16,26,984.15
2019,02,03,16,27,984.12
2019,02,03,16,28,984.08
2019,02,03,16,29,984.08
2019,02,03,16,30,984.12
2019,02,03,16,31,984.15
2019,02,03,16,32,984.15
2019,02,03,16,33,984.22
2019,02,03,16,34,984.29
2019,02,03,16,35,984.25
2019,02,03,16,36,984.36